User: anonymous   Login
Location: Unspecified
(0.0000°N, 0.0000°E)
Time: 22:03:59
(UTC+02:00)
Language:

Timation 2 Rocket - Orbit

View from above orbital plane
View from above orbital plane
View from above satellite
View from above satellite

Ground track
Ground track

The orbit data is extracted from the following two-line orbital elements,

1 04159U 69082AB  15088.29377943  .00000093  00000-0  14965-3 0  9990
2 04159 069.9645 025.7108 0114527 017.6297 342.8719 13.72290200276831
Epoch (UTC): 29 March 2015 07:03:02
Eccentricity: 0.0114527
inclination: 69.9645°
perigee height: 907 km
apogee height: 1076 km
right ascension of ascending node: 25.7108°
argument of perigee: 17.6297°
revolutions per day: 13.72290200
mean anomaly at epoch: 342.8719°
orbit number at epoch: 27683

The dashed part of the orbit path shows where the satellite is in the earth's shadow,  

DLR